Date,TemperatureHighF,TemperatureAvgF,TemperatureLowF,DewpointHighF,DewpointAvgF,DewpointLowF,HumidityHigh,HumidityAvg,HumidityLow,PressureMaxIn,PressureMinIn,WindSpeedMaxMPH,WindSpeedAvgMPH,GustSpeedMaxMPH,PrecipitationSumIn
2013-11-1,63,53,45,44,43,42,12,0,3,30.22,29.83,12,2,14,0.07
2013-11-2,56,53,50,46,45,44,37,12,2,30.06,29.72,40,16,52,0.31
2013-11-3,52,47,44,46,44,44,16,1,1,30.14,30.04,28,4,34,0.02
2013-11-4,52,49,45,44,43,43,0,0,100,30.12,30.04,20,4,25,0.31
2013-11-5,54,53,52,45,44,43,0,0,100,30.19,30.03,28,6,32,0.09
2013-11-6,56,54,53,46,45,45,0,0,100,30.22,30.02,11,2,13,0.04
2013-11-7,57,53,49,48,47,46,0,0,100,30.10,29.88,41,12,42,0.46
2013-11-8,53,50,45,47,46,45,0,0,100,30.15,30.05,15,1,15,0.19
2013-11-9,52,47,42,45,44,43,0,0,100,30.05,29.95,9,1,10,0.01
2013-11-10,66,53,47,49,45,43,28,3,3,30.02,29.93,17,3,19,0.00
2013-11-11,66,55,48,48,46,45,36,6,1,30.02,29.90,32,5,32,0.01
2013-11-12,58,55,51,49,48,47,0,0,100,30.39,29.99,30,6,32,0.28
2013-11-13,59,51,46,50,48,48,0,0,100,30.42,30.25,14,2,14,0.01
2013-11-14,51,47,44,48,47,46,0,0,100,30.25,30.07,11,1,13,0.05
2013-11-15,52,46,41,46,44,43,0,0,100,30.09,29.59,33,8,37,0.10
2013-11-16,53,51,49,45,44,43,0,0,100,29.83,29.57,44,11,49,0.10
2013-11-17,54,51,49,45,45,44,0,0,100,29.94,29.83,26,10,33,0.02
2013-11-18,54,52,50,46,45,45,0,0,100,29.93,29.65,42,15,54,0.12
2013-11-19,53,49,40,46,46,44,16,2,2,29.98,29.65,30,13,36,0.71
2013-11-20,49,40,33,44,41,39,44,15,1,30.30,29.98,19,6,21,0.71
2013-11-21,53,38,29,40,37,35,48,28,1,30.45,30.30,13,2,14,0.00
2013-11-22,64,42,32,39,35,32,47,40,21,30.43,30.21,18,3,22,0.00
2013-11-23,69,48,39,46,39,36,48,41,26,30.22,30.02,15,3,16,0.00
2013-11-24,65,47,40,47,42,40,47,35,10,30.16,30.01,21,5,26,0.00
2013-11-25,62,47,41,51,44,40,43,11,2,30.24,30.16,18,5,22,0.00
2013-11-26,56,48,40,52,46,41,24,3,1,30.17,29.94,16,4,18,0.00
2013-11-27,66,50,42,50,47,43,41,11,1,29.94,29.84,16,4,18,0.00
2013-11-28,61,47,40,50,47,42,39,3,1,30.14,29.91,13,3,17,0.00
2013-11-29,51,45,38,52,48,44,0,0,100,30.30,30.13,15,4,16,0.00
2013-11-30,54,49,44,49,48,46,0,0,100,30.33,30.19,20,3,23,0.02